sat.trackr.live / text

‹ back to catalog

STARLINK-2684

NORAD 48471 · 2021-040AV

PAYLOAD ACTIVE UNKNOWN

§ Identity

Operator
Country
US
Launch date
2021-05-09
Launch site
AFETR
Launch vehicle
Mass (kg)
RCS (m²)

Purposes: comms

External: N2YO · Heavens-Above · Gunter

§ Orbital elements

Epoch: 2026-09-20T00:00:18.475776Z

Period
94.01 min
Inclination
53.1602°
Eccentricity
0.0000838
Mean motion
15.31699553 rev/d
Perigee alt
470.2 km
Apogee alt
471.3 km
Semi-major
6,848.9 km
B*
3.6202e-4
RAAN
6.7662°
Arg perigee
86.2972°
Mean anomaly
273.8125°
Rev number
29,627

§ Raw data

STARLINK-26841 48471U 21040AV  26263.00021384  .00010885  00000+0  36202-3 0  99952 48471  53.1602   6.7662 0000838  86.2972 273.8125 15.31699553296274

JSON: /api/v1/satellites/48471 · /tle

For live sub-satellite position, see the globe view (requires WebGL).

§ Visibility from observer

Set your observer location to see the next 7 days of passes ≥ 10°. The values pass through the URL so the page stays shareable.

No JS? Fill the form by hand. The geolocation button needs JavaScript.